Regional Weather Roundup
Issued by NWS Wakefield, VA

Home | Current Version | Previous Version | Text Only | Print | Product List | Glossary On
Versions: 1 2 3 4 5 6 7 8 9 10 11 12 13 14 15 16 17 18 19 20 21 22 23 24 25 26 27 28 29 30 31 32 33 34 35 36 37 38 39 40 41 42 43 44 45 46 47 48 49 50
000
ASUS41 KAKQ 240010
RWRAKQ

REGIONAL WEATHER ROUNDUP
NATIONAL WEATHER SERVICE WAKEFIELD VA
800 PM EDT WED JUL 23 2014

Note: "fair" indicates few or no clouds below 12,000 feet with no
significant weather and/or obstructions to visibility. * = Denotes
station may not report precipitation (e.g., rain,snow,etc.),
thunder or fog.

VAZ042-051-052>054-056-240100-
NORTHERN VIRGINIA

CITY           SKY/WX    TMP DP  RH WIND       PRES   REMARKS
WASH NATIONAL  CLOUDY    88  66  48 NW17G28   29.85R
DULLES         LGT RAIN  79  70  74 W10       29.87R
FORT BELVOIR   DRIZZLE   84  75  73 NW10      29.85R
QUANTICO       MOCLDY    86  75  69 NW5       29.84R HX  95
FREDERICKSBRG* PTCLDY    87  74  65 W3        29.82S HX  95
STAFFORD*      MOCLDY    82  77  85 CALM      29.87S
WARRENTON      MOCLDY    83  74  73 NW7       29.84S
CULPEPER*      CLOUDY   N/A N/A N/A N5        29.86R THUNDER
MANASSAS*      CLOUDY    82  66  57 N12       29.85R
LEESBURG*      CLOUDY    77  73  88 CALM      29.88S
WINCHESTER     CLOUDY    79  68  69 S5        29.90R
$$

VAZ048-049-060>072-079>083-240100-
CENTRAL AND SOUTH CENTRAL VIRGINIA...AND NORTH CENTRAL NORTH CAROLINA

CITY           SKY/WX    TMP DP  RH WIND       PRES   REMARKS
RICHMOND       MOCLDY    90  69  50 SW13      29.87R
CHESTERFIELD*  MOCLDY    88  64  45 SW7       29.89R
HANOVER        PTCLDY    90  70  51 S9G20     29.87R HX  95
TAPPAHANNOCK*  PTCLDY    88  67  51 S5        29.86R
CHARLOTTSVILLE TSTM      75  69  81 SW15G22   29.88R VSB 1
ORANGE*        MOCLDY    84  70  61 NW8       29.88R
LOUISA*        PTCLDY    86  72  62 SW6       29.85S
FARMVILLE*     PTCLDY    88  70  55 S6        29.86S
SOUTH HILL*    PTCLDY    82  75  78 S3        29.95R
ROANOKE RAPIDS PTCLDY    86  73  66 SW8       29.90S
RALEIGH        PTCLDY    83  70  64 SW14      29.93S
$$

VAZ088>098-240100-
SOUTHEAST VIRGINIA

CITY           SKY/WX    TMP DP  RH WIND       PRES   REMARKS
NORFOLK        CLEAR     86  72  62 SW14      29.87R
VIRGINIA BEACH PTCLDY    85  72  65 SW10      29.87R
NORFOLK NAVAL  PTCLDY    87  73  62 SW9       29.88S
WEST POINT*    PTCLDY    89  72  56 S5        29.87R HX  95
NEWPORT NEWS   CLEAR     90  73  57 SW12      29.87R HX  98
LANGLEY AFB    CLEAR     87  74  66 SW12      29.86S HX  95
FORT EUSTIS    CLEAR     86  74  66 VRB6      29.85S
WILLIAMSBURG*  CLEAR     90  75  62 SW3       29.87S HX 100
FRANKLIN*      CLEAR     84  73  70 SW5       29.89R
WAKEFIELD      CLEAR     87  72  60 SW3       29.88R
$$

VAZ020-022-025-037-045-240100-
WESTERN AND SOUTHWEST VIRGINIA

CITY           SKY/WX    TMP DP  RH WIND       PRES   REMARKS
STAUNTON*      MOCLDY    73  68  83 CALM      29.93S
HOT SPRINGS VA MOCLDY    71  61  69 N6        30.09S
LYNCHBURG      MOCLDY    85  69  58 SW3       29.92R
DANVILLE       LGT RAIN  80  71  74 W14G20    29.92R
MARTINSVILLE   CLOUDY    76  68  76 SE5       29.97F
ROANOKE        MOCLDY    86  64  48 W7        29.94S
BLACKSBURG     MOCLDY    81  70  69 CALM      30.02S
DUBLIN*        MOCLDY    82  68  64 W5        30.02R
MARION*        PTCLDY    76  72  87 SW3       30.07S
HILLSVILLE*    MOCLDY    70  67  88 S3        30.05F
RICHLANDS*     MOCLDY    75  71  86 CALM      30.05S
WISE*          MOCLDY    70  61  73 SW7       30.08R
ABINGDON*      MOCLDY    76  69  77 W5        30.02F
$$

MDZ021>025-VAZ099-100-240100-
SOUTHERN MARYLAND AND THE DELMARVA PENINSULA

CITY           SKY/WX    TMP DP  RH WIND       PRES   REMARKS
PATUXENT RIVER MOCLDY    86  73  65 S6        29.84R
BAY BRIDGE APT   N/A     84  73  70 S7        29.84R
LEONARDTOWN    PTCLDY    86  70  58 CALM      29.86R
DOVER          CLEAR     85  76  74 S8        29.83R
GEORGETOWN     PTCLDY    83  72  69 S13       29.86R
EASTON         PTCLDY    86  75  70 S6        29.89R HX  95
CAMBRIDGE      CLEAR     82  72  69 S3        29.85R
SALISBURY      NOT AVBL
OCEAN CITY     PTCLDY    79  75  87 SW15G23   29.87R
WALLOPS ISLAND PTCLDY    79  76  90 SW16G23   29.88R
ACCOMACK*        N/A     81  73  78 S6        29.87R
$$

NCZ012>017-030>032-240100-
EASTERN NORTH CAROLINA

CITY           SKY/WX    TMP DP  RH WIND       PRES   REMARKS
ELIZABETH CITY CLEAR     82  74  76 S14G21    29.89S
AHOSKIE*       CLEAR     82  73  75 S3        29.90S
EDENTON*       CLEAR     82  74  77 SW10      29.90F
CURRITUCK*     CLEAR     86  71  60 S5        29.90S
KILL DEVIL HLS CLEAR     82  75  81 SW8       29.90S
MANTEO         NOT AVBL
CAPE HATTERAS  PTCLDY    80  76  87 SW10      29.93F
GOLDSBORO      PTCLDY    83  76  79 S5        29.91F
WASHINGTON     MOCLDY    79  75  89 S3        29.92F
GREENVILLE     PTCLDY    82  77  83 SW8       29.93F
NEW BERN       MOCLDY    83  75  77 S8        29.95S
WILMINGTON     CLOUDY    82  74  76 SW9       29.96F
$$

VAZ048-240100-
ELSEWHERE

CITY           SKY/WX    TMP DP  RH WIND       PRES   REMARKS
HARRISBURG PA  CLOUDY    78  70  76 VRB3      29.83R
BALTIMORE      TSTM      82  68  62 N10G21    29.85R
ANNAPOLIS      PTCLDY    83  76  79 S12       29.83R
ANDREWS AFB    CLOUDY    85  74  70 S6        29.84R
WILMINGTON DE  MOCLDY    85  70  60 NW20      29.86R
PHILADELPHIA   CLOUDY    85  71  63 S8        29.82R THUNDER
WILDWOOD NJ*   CLEAR     79  70  73 S10       29.85S
ATLANTIC CITY  PTCLDY    78  71  79 S12       29.84R
HENDERSON NC   PTCLDY    84  67  55 S6        29.92R
GREENSBORO     MOCLDY    84  71  65 SW7       29.94F
ROCKY MOUNT    PTCLDY    83  72  69 S9        29.91F
FAYETTEVILLE   PTCLDY    85  75  72 SW6       29.93F
CHARLOTTE      PTCLDY    81  69  67 W6        29.97R
$$

VAZ100-240100-
MARINE

STATION/POSITION TIME  TEMP    WIND        PRES    WAVE   SWELL
                       AIR SEA DIR/SP/G            HT/PER HT/PER
                 (UTC) (F)     (DEG/KT/KT) (MB)    (FT/S) (FT/S)
44066 TX TWR #4  0000   75 75  210/ 12/ 14 1010.6R   2/ 3   2/10
CAPE MAY NJ      0000   77 80  180/  9/ 13 1010.2S
LEWES DE         0000   83 73  190/  2/  6 1010.2S
15NM E FENWICK I 0000   78 77              1011.2R   3/ 4
OCEAN-CITY-INLET 0000   75 72  210/ 16/ 18 1010.9S
WACHAPREAGUE VA  0000   80 85  200/ 11/ 13 1011.3F
THOMAS POINT MD  0000   82 80  170/ 14/ 15 1010.7R
GOOSES REEF MD   0000   82     180/ 12/ 14 1010.7R
COVE POINT MD    0000   82     190/ 13/ 15 1010.2S
SOLOMONS ISLAND  0000      82                N/A
BISHOPS HEAD MD  0000   83 85  190/ 15/ 17 1010.2R
PINEY POINT MD   0000          230/ 10/ 12   N/A
POTOMAC MD       0000   84     180/ 12/ 14 1009.8R
CAMBRIDGE MD     0000   85 80  180/  5/  9 1010.4R
LEWISETTA VA     0000   86 85  200/  7/  8 1010.4R
RAPPAHANNOCK LGT 0000          150/ 11/ 12 1011.6F
STINGRAY PT      0000   82     180/ 12/ 16 1011.6R
YORK RVR RNG VA  0000   86     230/ 12/ 14 1010.6S
YORKTOWN VA      0000   87 80  210/  8/ 10 1010.9F
JAMESTOWN VA     0000   86     220/  8/ 10   N/A
DOMINION TERM VA 0000   85     210/  9/ 11 1011.6S
KIPTOPEKE VA     0000      82  220/  7/  9   N/A
CHES BAY BRIDGE  0000   86 79  200/ 13/ 15 1011.0R
CAPE HENRY VA    0000   86     220/  5/  8 1010.4R
WILLOUBY STN VA  0000          220/ 13/ 15 1010.8R
S CRANEY ISL VA  0000          210/  6/ 10 1011.6R
CAPE HENRY BUOY  0000      78                N/A     3/ 3
1ST LANDING BUOY 0000   84     210/  8/ 12 1011.2R
CAPE CHARLES BUO 0000      77                N/A     2/ 4
OFFSHORE WE BUOY 0000      78                N/A     3/ 9
64NM E OF VA BCH 0000   79 79  200/ 17/ 21 1011.9F   3/ 8   2/ 8
DUCK PIER NC     0000   82 74  200/ 13/ 18 1011.7S
44056 DUCK FRF   0000                        N/A     2/ 8
OREGON INLET NC  0000   81 84  210/ 19/ 22 1013.0F
HATTERAS NC      0000   79 83  220/  8/ 12 1014.0F
DIAMOND SHLS NC  0000          VRB 17/ 21  1013.4S   4/ 4   2/ 7
CAPE LOOKOUT NC  2300   80     220/ 12/ 15 1014.5F
$$


USA.gov is the U.S. government's official web portal to all federal, state and local government web resources and services.